Flag for France Weather past 2 weeks in Reims, France

Now
43 °F

Overcast.


Feels Like: 36 °F
Forecast: 38 / 46 °F
Wind: 12 mph from Southwest

Location: Chalons-Vatry

Current Time: Dec 22, 2014 at 1:49:39 AM

Latest Report: Dec 22, 2014 at 1:00 AM


Visibility: N/A

Pressure: 30.45 "Hg

Humidity: 87%

Dew point: 39 °F

Location of ReimsLocation

Historic Weather in Reims — Graph

°F

Reims temperature yesterday

Maximum temperature yesterday: 45 °F (at 12:30 PM)
Minimum temperature yesterday: 36 °F (at 12:30 AM)
Average temperature yesterday: 42 °F

Past Weeks' High & Low Weather Summary

 TemperatureHumidityPressure
High55 °F (Dec 18, 1:00 PM)100% (Dec 7, 2:00 AM)30.54 "Hg (Dec 7, 2:00 AM)
Low27 °F (Dec 15, 1:00 AM)76% (Dec 13, 12:00 PM)29.65 "Hg (Dec 12, 2:30 PM)
Average42 °F94%30.10 "Hg
* Reported Dec 7 1:00 AM — Dec 22 1:00 AM, Reims, Weather by CustomWeather, © 2014

Note: Actual official high and low records may vary slightly from our data, if they occured in-between our weather recording intervals... More about our weather records

Advertising

Reims weather history for previous 24 hours

 ConditionsComfort  
Time TempWeatherWind HumidityBarometerVisibility
1:00 AM
Dec 22
43 °FOvercast.12 mph87%30.45 "HgN/A
12:30 AM43 °FOvercast.12 mph87%30.45 "HgN/A
12:00 AM43 °FOvercast.14 mph87%30.45 "HgN/A
11:30 PM
Dec 21
45 °FOvercast.15 mph81%30.48 "HgN/A
10:30 PM43 °FOvercast.15 mph81%30.48 "HgN/A
10:00 PM43 °FOvercast.13 mph87%30.48 "HgN/A
9:30 PM43 °FOvercast.12 mph87%30.48 "HgN/A
9:00 PM43 °FOvercast.13 mph81%30.51 "HgN/A
8:30 PM43 °FOvercast.12 mph81%30.51 "HgN/A
8:00 PM43 °FOvercast.12 mph81%30.51 "HgN/A
7:30 PM43 °FOvercast.10 mph81%30.51 "HgN/A
7:00 PM43 °FOvercast.13 mph81%30.51 "HgN/A
6:30 PM43 °FOvercast.14 mph87%30.48 "HgN/A
6:00 PM45 °FOvercast.13 mph81%30.51 "HgN/A
5:30 PM45 °FOvercast.14 mph81%30.51 "HgN/A
5:00 PM45 °FOvercast.15 mph81%30.48 "HgN/A
4:30 PM45 °FOvercast.12 mph81%30.51 "HgN/A
4:00 PM45 °FOvercast.12 mph81%30.51 "HgN/A
3:30 PM45 °FOvercast.13 mph81%30.51 "HgN/A
3:00 PM45 °FOvercast.14 mph81%30.48 "HgN/A
2:30 PM45 °FOvercast.13 mph81%30.51 "HgN/A
2:00 PM45 °FOvercast.12 mph81%30.51 "HgN/A
1:30 PM45 °FOvercast.12 mph87%30.51 "HgN/A
1:00 PM45 °FOvercast.10 mph87%30.54 "HgN/A
12:30 PM45 °FOvercast.12 mph93%30.54 "HgN/A
12:00 PM43 °FOvercast.10 mph100%30.54 "HgN/A
11:30 AM43 °FOvercast.12 mph93%30.54 "HgN/A
11:00 AM43 °FOvercast.12 mph93%30.54 "HgN/A
10:30 AM41 °FOvercast.9 mph100%30.54 "HgN/A
10:00 AM41 °FOvercast.6 mph100%30.54 "HgN/A
9:30 AM41 °FOvercast.5 mph93%30.54 "HgN/A
9:00 AM41 °FOvercast.7 mph93%30.54 "HgN/A
8:30 AM39 °FPassing clouds.6 mph100%30.54 "Hg5 mi
8:00 AM39 °FPassing clouds.6 mph100%30.54 "Hg4 mi
7:30 AM39 °FFog.8 mph100%30.54 "Hg3 mi
7:00 AM39 °FFog.7 mph100%30.51 "Hg2 mi
6:30 AM39 °FFog.7 mph100%30.54 "Hg1 mi
6:00 AM41 °FFog.8 mph93%30.51 "Hg3 mi
5:30 AM39 °FFog.7 mph100%30.54 "Hg3 mi
5:00 AM39 °FFog.7 mph100%30.54 "Hg3 mi
4:30 AM39 °FFog.7 mph100%30.54 "Hg3 mi
4:00 AM39 °FFog.8 mph100%30.54 "Hg3 mi
3:30 AM39 °FFog.7 mph100%30.54 "Hg3 mi
3:00 AM39 °FFog.8 mph93%30.54 "Hg2 mi
2:30 AM39 °FFog.7 mph93%30.51 "Hg2 mi
2:00 AM39 °FFog.7 mph100%30.51 "Hg2 mi
1:30 AM39 °FFog.8 mph93%30.51 "Hg2 mi
1:00 AM37 °FFog.8 mph100%30.51 "Hg3 mi
Weather by CustomWeather, © 2014

See weather overviewHow to use our weather pages